Content
SEND FEEDBACK

Daily
Averages
Monthly
Summary
United States of America

ASHEVILLE, NORTH CAROLINA


Home > North America > United States > North Carolina
Elevation: 2240 feet     Latitude: 35 36N     Longitude: 082 32W

WEATHER
 
SELECT A DAY
Number of Records: 225,823;   Date Range: 1/1/95 - 7/29/14
 
SHARE

PRINT THIS DATA

[ ← Previous Day ]
WEATHER ALMANAC - FEBRUARY 9, 2013
[ Next Day → ]
[ °C ]   °F
Weather ElementAverageHighLow
Temperature40.4 °F55.9 °F (2:54 pm)30 °F (6:54 am)
Dewpoint17.7 °F27 °F (10:54 pm)5 °F (11:54 am)
Humidity48.1 %79 % (11:54 pm)14 % (2:54 pm)
Barometer30.25 in30.32 in (9:54 pm)30.14 in (1:54 am)
Wind Speed7.2 mph18.4 mph (1:54 am)
Wind Gust27.6 mph (2:54 am)
Weather ElementAverage
Visibility10 mi
Wind DirectionSSW (205.7 °)

Weather ElementTotal
Precipitation---
Heating Degree Days22.1 (Base 65)
Averaged from 23 records on February 9, 2013
WEATHER CONDITIONS BREAKOUT
WIND DIRECTION BREAKOUT
WEATHER BY HOUR - FEBRUARY 9, 2013
[ °C ]   °F
Local TimeTemperatureDewpointHumidityBarometerVisibilityWind DirectionWind SpeedGust SpeedPrecipitationEventsConditions
1:54 AM32.0 °F23.0 °F69 %30.14 in10.0 miNNW (330°)18.4 mph25.3 mphClear
2:54 AM32.0 °F24.1 °F73 %30.15 in10.0 miNorth (350°)16.1 mph27.6 mphClear
3:54 AM32.0 °F23.0 °F69 %30.15 in10.0 miNorth (350°)18.4 mph27.6 mphClear
4:54 AM30.9 °F23.0 °F72 %30.17 in10.0 miNorth (360°)15.0 mph23.0 mphClear
5:54 AM30.9 °F23.0 °F72 %30.21 in10.0 miNorth (360°)9.2 mph19.6 mphClear
6:54 AM30.0 °F21.9 °F72 %30.25 in10.0 miNorth (360°)6.9 mphClear
7:54 AM30.0 °F21.9 °F72 %30.28 in10.0 miNorth (360°)12.7 mphClear
8:54 AM33.1 °F21.9 °F64 %30.30 in10.0 miNorth (360°)9.2 mphClear
9:54 AM37.0 °F19.9 °F50 %30.31 in10.0 miNorth (350°)10.4 mphClear
10:54 AM42.1 °F18.0 °F38 %30.30 in10.0 miNNW (340°)12.7 mphClear
11:54 AM46.9 °F5.0 °F18 %30.30 in10.0 miNorth (360°)8.1 mphClear
12:54 PM51.1 °F6.1 °F16 %30.28 in10.0 miNorth (10°)6.9 mphClear
1:54 PM53.1 °F6.1 °F15 %30.26 in10.0 miNorth (350°)9.2 mphClear
2:54 PM55.9 °F7.0 °F14 %30.24 in10.0 miNNW (330°)4.6 mphClear
3:54 PM55.9 °F8.1 °F15 %30.22 in10.0 miVariable3.5 mphClear
4:54 PM55.9 °F7.0 °F14 %30.23 in10.0 miCalmClear
5:54 PM51.1 °F9.0 °F18 %30.24 in10.0 miCalmClear
6:54 PM46.0 °F16.0 °F30 %30.27 in10.0 miCalmClear
7:54 PM42.1 °F19.9 °F41 %30.30 in10.0 miCalmClear
8:54 PM39.9 °F24.1 °F53 %30.31 in10.0 miCalmClear
9:54 PM36.0 °F26.1 °F67 %30.32 in10.0 miCalmClear
10:54 PM34.0 °F27.0 °F75 %30.31 in10.0 miCalmClear
11:54 PM32.0 °F26.1 °F79 %30.32 in10.0 miSSE (160°)3.5 mphClear
Hourly data recorded from KAVL, located miles away from Asheville, North Carolina







STORIES FROM OUR PARTNERS